#timestamp,LO_Frequency,Hit,StdDev 
1533132015.1,286046998.5,N
1533132035.8,286046998.5,N
1533132055.7,286046999.3,N
1533132075.5,286047001.2,N
1533132095.4,286047001.2,N
1533132115.2,286046998.2,N
1533132135.0,286046998.5,N
1533132135.9,286046998.5,N
1533132155.8,286047001.1,N
1533132175.6,286046999.0,N
1533132195.4,286046998.3,N
1533132215.3,286047000.8,N
1533132235.1,286047001.0,N
1533132255.9,286047001.2,N
1533132275.7,286046998.3,N
1533132295.5,286046998.6,N
1533132315.4,286046998.2,N
1533132335.2,286046998.6,N
1533132355.0,286046999.1,N
1533132355.9,286046999.1,N
1533132375.8,286046998.5,N
1533132395.6,286046998.1,N
1533132415.5,286046998.9,N
1533132435.3,286046998.5,N
1533132455.1,286047001.1,N
1533132475.9,286046998.2,N
1533132495.7,286046998.3,N
1533132515.5,286047000.7,N
1533132535.4,286046998.7,N
1533132555.2,286047000.8,N
1533132575.1,286046998.5,N
1533132576.0,286046998.5,N
1533132595.8,286046998.6,N
1533132615.6,286046998.6,N
1533132635.5,286047000.8,N
1533132655.3,286046999.0,N
1533132675.2,286046998.8,N
1533132695.9,286046996.9,N
1533132715.7,286046999.5,N
1533132735.6,286046996.6,Y
1533132755.4,286046998.6,P
1533132775.2,286046998.1,P
1533132795.1,286047000.8,N
1533132796.0,286047000.8,N
1533132815.8,286046998.7,N
1533132865.7,286047000.7,E
1533132875.6,286047001.0,N
1533132895.4,286047001.2,P
1533132915.3,286046998.5,P
1533132965.1,286046998.1,E
1533132975.1,286046999.7,N
1533132976.0,286046999.7,P
1533132995.8,286047002.5,P
1533133015.6,286047001.8,N
1533133035.5,286047002.1,N
1533133055.3,286047002.2,N
1533133075.2,286047002.6,N
1533133095.9,286047002.6,N
1533133115.7,286047002.3,N
1533133135.6,286047001.9,N
1533133155.4,286047001.9,N
1533133175.3,286047002.4,N
1533133195.1,286047002.2,N
1533133196.0,286047002.2,N
1533133215.8,286047002.1,N
1533133235.7,286047000.1,N
1533133255.5,286046999.8,N
1533133275.4,286047002.6,N
1533133295.2,286047002.2,N
1533133315.0,286047002.0,N
1533133315.9,286047002.0,N
1533133335.8,286047000.2,N
1533133355.6,286047000.1,N
1533133375.4,286047000.2,N
1533133395.3,286047000.0,N
1533133415.1,286047002.3,N
1533133435.9,286047002.4,N
1533133455.7,286047000.1,N
1533133475.5,286047002.6,N
1533133495.4,286047000.4,N
1533133515.2,286047000.1,N
1533133535.1,286047002.7,N
1533133536.0,286047002.7,N
1533133555.8,286047000.5,N
1533133575.6,286046999.9,N
1533133595.5,286047000.2,N
1533133615.3,286047000.6,N
1533133635.2,286047000.3,N
1533133655.9,286047000.7,N
1533133675.7,286047000.9,N
1533133695.6,286047001.2,N
1533133715.4,286046998.5,N
1533133735.2,286047000.7,N
1533133755.1,286047001.1,N
1533133756.0,286047001.1,N
1533133775.8,286046998.4,N
1533133795.7,286046998.7,N
1533133815.5,286046998.4,N
1533133835.3,286046999.2,N
1533133855.2,286046999.4,N
1533133875.0,286046999.1,N
1533133875.9,286046999.1,N
1533133895.8,286046996.7,N
1533133915.6,286046996.8,N
1533133935.4,286046995.0,Y
1533133955.3,286046996.1,P
1533133975.1,286046996.3,N
1533133995.8,286046995.2,N
1533134015.7,286046995.8,N
1533134035.5,286046995.1,N
1533134055.4,286046995.0,N
1533134075.2,286046998.0,N
1533134095.0,286046995.0,Y
1533134095.9,286046995.0,P
1533134115.8,286046998.2,N
1533134135.6,286047000.7,N
1533134155.5,286047011.9,Y
1533134175.3,286047002.4,P
1533134195.1,286047002.5,N
1533134215.9,286047002.4,N
1533134235.7,286047002.8,N
1533134255.5,286047000.2,N
1533134275.4,286047002.3,N
1533134295.2,286047002.2,N
1533134315.1,286047001.9,N
1533134316.0,286047001.9,N
1533134335.8,286047002.3,N
1533134355.6,286047003.9,N
1533134375.5,286047001.7,N
1533134395.3,286047003.9,N
1533134415.1,286047003.3,N
1533134435.9,286047005.1,Y
1533134455.7,286047003.2,P
1533134475.6,286047003.1,P
1533134495.4,286047005.8,P
1533134515.2,286047005.3,Y
1533134535.1,286047000.0,P
1533134536.0,286047000.0,N
1533134555.8,286047001.1,N
1533134575.7,286046998.1,N
1533134595.5,286047000.5,N
1533134615.3,286047000.6,N
1533134635.2,286047001.0,N
1533134655.9,286047001.0,N
1533134675.7,286046998.2,N
1533134695.6,286046999.0,N
1533134715.4,286046999.6,N
1533134735.3,286046996.5,N
1533134755.1,286046996.8,N
1533134756.0,286046996.8,N
1533134775.8,286046997.5,N
1533134795.7,286046996.7,N
1533134815.5,286046997.7,N
1533134835.3,286046997.8,N
1533134855.2,286046996.8,N
1533134875.0,286046997.5,N
1533134875.9,286046997.5,N
1533134895.8,286046998.0,N
1533134915.6,286046995.0,N
1533134935.4,286046997.6,N
1533134955.3,286046996.8,N
1533134975.1,286046997.1,N
1533134995.8,286046997.3,N
1533135015.7,286046997.5,N
1533135035.5,286046996.8,N
1533135055.4,286046999.5,N
1533135075.2,286046998.3,N
1533135095.0,286046998.3,N
1533135095.9,286046998.3,N
1533135115.8,286047001.0,N
1533135135.6,286047000.6,N
1533135155.5,286046998.5,N
1533135175.3,286046998.2,N
1533135195.1,286047000.7,N
1533135215.9,286046998.6,N
1533135235.7,286046998.7,N
1533135255.5,286046998.1,N
1533135275.4,286046998.2,N
1533135295.2,286047000.7,N
1533135315.0,286046998.9,N
1533135316.0,286046998.9,N
1533135335.8,286046999.4,N
1533135355.6,286046998.2,N
1533135375.5,286046998.9,N
1533135395.3,286046999.4,N
1533135415.1,286046998.6,N
1533135435.9,286046998.9,N
1533135455.7,286046999.3,N
1533135475.6,286046998.5,N
1533135495.4,286046998.5,N
1533135515.2,286046998.6,N
1533135535.1,286046998.8,N
1533135536.0,286046998.8,N
1533135555.8,286046998.4,N
1533135575.7,286046996.9,Y
1533135595.5,286046999.0,P
